Waarnemingen

Advertentie
Mijn weer
Llanes, Spanje (8016): temperatuur & dauwpunt: 05.12.2018 17:00:00 - 11.12.2018 17:00:00 (CET)Llanes, Spanje (8016): windsnelheid & windstoten: 05.12.2018 17:00:00 - 11.12.2018 17:00:00 (CET)Llanes, Spanje (8016): windrichting: 05.12.2018 17:00:00 - 11.12.2018 17:00:00 (CET)Llanes, Spanje (8016): luchtdruk: 05.12.2018 17:00:00 - 11.12.2018 17:00:00 (CET)Llanes, Spanje (8016): zicht: 05.12.2018 17:00:00 - 11.12.2018 17:00:00 (CET)Llanes, Spanje (8016): Zonneschijnduur: 05.12.2018 17:00:00 - 11.12.2018 17:00:00 (CET)Llanes, Spanje (8016): neerslag: 05.12.2018 17:00:00 - 11.12.2018 17:00:00 (CET)
Datum & Tijd tt [°C] td [°C] ff [km/u] ff [kn] fx [km/u] fx [kn] dd ppp [hPa] vv [km] sd [min] rr [mm]
11.12.2018 17:00:00 - - - - - - - - - - -
11.12.2018 16:00:00 12,9 8,4 5 3 17 9 W 1020,1 12 0 0,0
11.12.2018 15:00:00 12,9 8,0 3 2 16 8 NNW 1019,9 20 2 0,0
11.12.2018 14:00:00 12,7 7,8 6 4 16 9 NW 1020,6 18 1 0,0
11.12.2018 13:00:00 13,3 8,4 2 1 16 9 N 1020,4 15 57 -
11.12.2018 12:00:00 12,0 7,1 4 2 18 10 W 1020,8 20 24 0,0
11.12.2018 11:00:00 9,9 4,8 8 4 12 6 WZW 1021,1 20 31 0,0
11.12.2018 10:00:00 8,2 3,6 11 6 27 14 WZW 1020,9 20 7 0,0
11.12.2018 09:00:00 7,2 2,9 13 7 26 14 WZW 1020,5 20 0 0,0
11.12.2018 08:00:00 6,9 3,4 13 7 36 19 WZW 1020,3 20 0 0,0
11.12.2018 07:00:00 6,5 3,2 9 5 24 13 WZW 1020,4 20 0 -
11.12.2018 06:00:00 6,9 3,9 5 3 23 12 Z 1020,8 20 0 0,0
11.12.2018 05:00:00 6,6 3,8 7 4 24 13 WZW 1021,8 20 0 0,0
11.12.2018 04:00:00 6,8 3,9 5 3 21 11 ZZW 1022,8 20 0 0,0
11.12.2018 03:00:00 7,6 4,6 9 5 25 13 WZW 1023,5 18 0 0,0
11.12.2018 02:00:00 7,1 4,5 8 4 23 13 WZW 1024,1 18 0 0,0
11.12.2018 01:00:00 7,7 4,8 8 5 23 12 ZW 1024,8 16 0 -
11.12.2018 00:00:00 8,3 5,3 4 2 8 4 ZZW 1025,6 15 0 0,0
10.12.2018 23:00:00 8,5 5,6 5 3 23 12 ZW 1026,1 12 0 0,0
10.12.2018 22:00:00 8,3 5,3 9 5 23 12 WZW 1026,6 10 0 0,0
10.12.2018 21:00:00 9,9 6,1 3 1 15 8 Z 1027,3 12 0 0,0
10.12.2018 20:00:00 11,0 7,1 6 4 18 10 ZZO 1028,3 9 0 0,0
10.12.2018 19:00:00 11,2 7,1 7 4 19 10 ZZO 1028,6 8 0 -
10.12.2018 18:00:00 11,4 7,1 6 3 16 8 ZZO 1028,9 8 0 0,0
10.12.2018 17:00:00 12,8 7,8 10 5 34 18 ZO 1029,2 4,9 0 0,0
10.12.2018 16:00:00 13,4 8,0 22 12 34 19 O 1029,4 12 0 0,0
10.12.2018 15:00:00 13,9 8,3 19 10 29 16 O 1029,8 14 34 0,0
10.12.2018 14:00:00 14,1 8,5 14 8 26 14 OZO 1030,3 9 60 0,0
10.12.2018 13:00:00 13,9 8,1 15 8 23 12 O 1031,2 12 52 -
10.12.2018 12:00:00 14,3 8,0 14 8 23 12 O 1032,0 14 29 0,0
10.12.2018 11:00:00 13,0 8,7 3 2 18 10 W 1032,8 9 53 0,0
10.12.2018 10:00:00 10,0 7,1 4 2 12 6 ZW 1032,9 13 50 0,0
10.12.2018 09:00:00 8,4 5,8 2 1 16 9 ZW 1032,9 8 0 0,0
10.12.2018 08:00:00 8,4 5,6 2 1 14 7 W 1033,1 14 0 0,0
10.12.2018 07:00:00 8,2 5,5 4 2 27 15 ZZW 1033,3 9 0 -
10.12.2018 06:00:00 8,7 5,9 11 6 26 14 WZW 1033,4 14 0 0,0
10.12.2018 05:00:00 8,6 5,8 7 4 23 12 WZW 1033,3 13 0 0,0
10.12.2018 04:00:00 9,2 6,1 4 2 19 10 ZW 1033,7 11 0 0,0
10.12.2018 03:00:00 9,8 6,4 6 3 25 13 WZW 1034,1 16 0 0,0
10.12.2018 02:00:00 9,9 6,4 10 5 14 7 WZW 1034,3 14 0 0,0
10.12.2018 01:00:00 9,9 6,1 6 3 16 9 WZW 1034,6 14 0 -
10.12.2018 00:00:00 11,5 6,8 7 4 10 5 ZW 1034,8 15 0 0,0
09.12.2018 23:00:00 12,2 7,1 5 3 8 5 ZW 1034,9 14 0 0,0
09.12.2018 22:00:00 12,7 7,6 3 2 11 6 W 1035,0 13 0 0,0
09.12.2018 21:00:00 13,0 7,8 5 3 11 6 WZW 1034,9 11 0 0,0
09.12.2018 20:00:00 13,2 8,5 4 2 13 7 W 1034,6 8 0 0,0
09.12.2018 19:00:00 13,3 8,1 6 3 16 9 WZW 1034,2 9 0 -
09.12.2018 18:00:00 13,4 8,3 7 4 26 14 W 1033,5 10 0 0,0
09.12.2018 17:00:00 13,6 8,4 9 5 30 16 W 1033,1 10 0 0,0
09.12.2018 16:00:00 13,9 9,2 14 8 32 17 WNW 1032,7 9 0 0,0
09.12.2018 15:00:00 14,1 8,5 19 10 38 20 WNW 1032,3 9 0 0,0
09.12.2018 14:00:00 14,1 9,3 20 11 42 23 WNW 1032,1 10 0 0,0
09.12.2018 13:00:00 14,1 9,9 23 13 44 24 WNW 1032,3 10 3 -
09.12.2018 12:00:00 14,1 9,9 18 10 35 19 WNW 1032,7 13 4 0,0
09.12.2018 11:00:00 13,6 9,8 8 5 28 15 W 1032,8 20 11 0,0
09.12.2018 10:00:00 13,2 9,0 10 5 32 17 W 1031,5 19 6 0,0
09.12.2018 09:00:00 13,0 9,3 14 8 25 14 WNW 1030,7 20 0 0,0
09.12.2018 08:00:00 13,5 9,9 9 5 47 25 WZW 1031,0 18 0 0,0
09.12.2018 07:00:00 14,4 7,8 16 9 40 22 W 1029,8 20 0 -
09.12.2018 06:00:00 14,1 8,9 12 6 28 15 W 1029,6 20 0 0,0
09.12.2018 05:00:00 13,4 9,0 10 6 22 12 WZW 1029,7 20 0 0,0
09.12.2018 04:00:00 13,7 9,7 9 5 30 16 WZW 1029,1 19 0 0,0
09.12.2018 03:00:00 13,3 9,7 8 5 20 11 WZW 1028,4 17 0 0,0
09.12.2018 02:00:00 14,2 10,2 8 4 26 14 WZW 1028,3 13 0 0,0
09.12.2018 01:00:00 14,8 10,2 13 7 22 12 WNW 1028,4 12 0 -
09.12.2018 00:00:00 13,7 7,8 3 2 17 9 WZW 1028,3 20 0 0,0
08.12.2018 23:00:00 13,0 6,8 7 4 22 12 ZW 1028,2 20 0 0,0
08.12.2018 22:00:00 12,3 7,0 10 5 16 9 WZW 1028,1 15 0 0,0
08.12.2018 21:00:00 12,5 7,0 3 2 13 7 Z 1027,2 16 0 0,0
08.12.2018 20:00:00 12,1 6,8 4 2 14 8 ZZW 1027,1 16 0 0,0
08.12.2018 19:00:00 - - - - - - - - - - -
08.12.2018 18:00:00 11,6 5,3 11 6 14 8 WZW 1027,7 14 0 0,0
08.12.2018 17:00:00 13,2 6,1 6 4 10 6 WZW 1027,8 20 0 0,0
08.12.2018 16:00:00 14,1 7,1 8 4 10 5 O 1027,4 16 0 0,0
08.12.2018 15:00:00 16,2 6,1 3 2 13 7 O 1027,8 17 33 0,0
08.12.2018 14:00:00 15,7 5,6 12 7 21 11 O 1028,1 20 60 0,0
08.12.2018 13:00:00 15,1 5,6 10 5 16 8 O 1028,7 20 47 -
08.12.2018 12:00:00 15,0 5,5 6 4 15 8 O 1029,8 20 28 0,0
08.12.2018 11:00:00 15,0 6,1 1 1 18 10 ZO 1029,9 20 52 0,0
08.12.2018 10:00:00 12,2 4,6 5 3 16 9 W 1029,9 20 52 0,0
08.12.2018 09:00:00 10,0 3,8 7 4 15 8 W 1029,9 20 0 0,0
08.12.2018 08:00:00 10,1 3,8 5 3 16 9 W 1030,6 20 0 0,0
08.12.2018 07:00:00 9,8 3,8 6 3 16 9 W 1030,2 20 0 -
08.12.2018 06:00:00 10,6 4,1 8 4 28 15 W 1029,4 20 0 0,0
08.12.2018 05:00:00 10,5 4,1 7 4 18 10 W 1029,1 20 0 0,0
08.12.2018 04:00:00 10,8 4,5 6 3 18 10 W 1030,1 20 0 0,0
08.12.2018 03:00:00 11,0 4,3 6 4 15 8 W 1029,3 20 0 0,0
08.12.2018 02:00:00 11,2 4,8 6 3 25 13 W 1029,3 20 0 0,0
08.12.2018 01:00:00 11,0 5,3 9 5 17 9 W 1029,4 20 0 -
08.12.2018 00:00:00 11,3 5,5 5 3 16 9 W 1029,5 20 0 0,0
07.12.2018 23:00:00 11,9 5,9 9 5 23 13 W 1029,7 20 0 0,0
07.12.2018 22:00:00 12,5 6,1 10 6 22 12 W 1029,8 20 0 0,0
07.12.2018 21:00:00 12,7 6,7 9 5 44 24 W 1029,5 20 0 0,0
07.12.2018 20:00:00 12,9 7,1 16 9 48 26 W 1029,3 20 0 0,0
07.12.2018 19:00:00 12,5 8,8 18 10 53 28 W 1028,9 19 0 -
07.12.2018 18:00:00 11,8 9,2 18 10 60 33 W 1028,2 18 0 0,4
07.12.2018 17:00:00 12,9 9,7 23 12 46 25 WNW 1027,6 3,3 0 0,2
07.12.2018 16:00:00 12,7 9,7 21 11 64 34 W 1026,5 20 0 0,2
07.12.2018 15:00:00 13,6 10,4 36 19 72 39 WNW 1025,5 3,6 8 0,0
07.12.2018 14:00:00 17,9 10,5 15 8 27 15 WNW 1023,2 20 3 0,0
07.12.2018 13:00:00 15,6 9,7 10 5 18 10 WNW 1023,2 20 19 -
07.12.2018 12:00:00 16,0 10,3 3 2 11 6 O 1023,7 18 20 0,0
07.12.2018 11:00:00 13,9 8,8 6 3 21 11 W 1023,9 20 37 0,0
07.12.2018 10:00:00 11,3 7,4 5 3 16 8 WZW 1024,7 20 58 0,0
07.12.2018 09:00:00 8,9 5,3 5 3 12 6 ZZW 1025,2 20 6 0,0
07.12.2018 08:00:00 8,9 5,1 11 6 27 14 ZW 1025,4 20 0 0,0
07.12.2018 07:00:00 8,6 4,6 11 6 28 15 WZW 1025,3 20 0 -
07.12.2018 06:00:00 9,0 4,8 11 6 24 13 WZW 1024,6 20 0 0,0
07.12.2018 05:00:00 8,3 5,0 6 4 26 14 WZW 1024,8 20 0 0,0
07.12.2018 04:00:00 8,1 5,0 3 2 21 12 WZW 1025,3 20 0 0,0
07.12.2018 03:00:00 8,7 5,5 4 2 14 8 ZW 1025,9 20 0 0,0
07.12.2018 02:00:00 9,0 5,8 7 4 12 6 WZW 1026,3 20 0 0,0
07.12.2018 01:00:00 9,6 5,9 4 2 15 8 WZW 1027,1 20 0 -
07.12.2018 00:00:00 9,4 5,9 6 3 17 9 WZW 1027,9 20 0 0,0
06.12.2018 23:00:00 9,9 6,1 6 4 15 8 WZW 1028,4 20 0 0,0
06.12.2018 22:00:00 11,3 6,7 4 2 10 6 ZZW 1028,7 20 0 0,0
06.12.2018 21:00:00 11,6 7,0 8 4 17 9 ZZW 1029,1 20 0 0,0
06.12.2018 20:00:00 12,8 7,4 9 5 13 7 ZW 1029,5 20 0 0,0
06.12.2018 19:00:00 13,8 7,6 8 4 21 12 ZW 1029,6 20 0 -
06.12.2018 18:00:00 14,3 7,6 5 3 19 11 WZW 1029,6 20 0 0,0
06.12.2018 17:00:00 14,7 7,7 4 2 22 12 WZW 1029,5 20 0 0,0
06.12.2018 16:00:00 15,1 7,8 11 6 29 16 WNW 1029,3 20 0 0,0
06.12.2018 15:00:00 15,3 8,3 8 4 23 13 WNW 1029,4 20 0 0,0
06.12.2018 14:00:00 15,2 8,7 14 7 25 14 WNW 1029,6 20 0 0,0
06.12.2018 13:00:00 15,2 8,9 16 9 35 19 WNW 1030,1 20 0 -
06.12.2018 12:00:00 15,3 9,8 9 5 21 12 WNW 1030,5 20 2 0,0
06.12.2018 11:00:00 14,8 9,8 10 5 22 12 WNW 1030,5 20 0 0,0
06.12.2018 10:00:00 14,2 10,0 8 4 18 10 WNW 1030,0 20 0 0,0
06.12.2018 09:00:00 13,5 9,9 6 3 15 8 WZW 1029,4 20 0 0,0
06.12.2018 08:00:00 13,6 9,8 5 3 18 10 W 1028,8 20 0 0,0
06.12.2018 07:00:00 13,6 10,0 5 3 16 9 W 1028,1 20 0 -
06.12.2018 06:00:00 13,6 10,5 8 4 18 10 W 1028,0 20 0 0,0
06.12.2018 05:00:00 13,3 10,9 7 4 17 9 WZW 1027,7 20 0 0,0
06.12.2018 04:00:00 13,1 10,4 2 1 13 7 ZZW 1027,5 20 0 0,0
06.12.2018 03:00:00 13,3 10,6 4 2 19 10 ZW 1027,4 20 0 0,0
06.12.2018 02:00:00 13,0 10,2 7 4 19 10 WZW 1027,0 20 0 0,0
06.12.2018 01:00:00 13,4 10,2 8 4 20 11 W 1026,9 20 0 -
06.12.2018 00:00:00 13,3 10,0 4 2 16 8 Z 1026,8 20 0 0,0
05.12.2018 23:00:00 14,1 10,2 4 2 18 10 W 1026,1 20 0 0,0
05.12.2018 22:00:00 14,4 9,8 6 3 17 9 ZW 1025,8 20 0 0,0
05.12.2018 21:00:00 14,2 10,0 2 1 21 12 WZW 1025,1 20 0 0,0
05.12.2018 20:00:00 14,5 10,3 3 1 14 8 ZZW 1024,2 20 0 0,0
05.12.2018 19:00:00 14,4 10,0 5 3 19 10 W 1023,2 20 0 -
05.12.2018 18:00:00 15,1 11,4 13 7 18 10 WZW 1022,5 20 0 0,0
05.12.2018 17:00:00 15,9 12,4 4 2 12 7 WNW 1021,9 16 0 0,0

tt = temperatuur
td = dauwpunt
ff = windsnelheid
fx = windstoten
dd = windrichting
ppp = luchtdruk
vv = zicht
sd = Zonneschijnduur
rr = neerslag

Weerstations in de omgeving